Theta_e
313 313 314 314 314 314 314 314 314 314 314 314 315 315 315 316 315 315 315 316 315 315 315 315 314 314 314 314 314 313 313 307 305 303 302 306 311 316 323 319 323 325 322 311 305 299 297 300 300 301 299 299 298 300 300 301 297 295 290 285 284 284 286 288 290 290 293 292 294 295 295 294 294 297 307 317 322 325 325 325 328 330 330 332 333 335 336 337
313 313 314 314 314 314 314 314 314 314 314 314 314 314 315 315 315 315 315 315 315 315 314 314 314 314 314 314 314 314 310 305 302 303 303 313 321 320 321 322 326 328 319 305 301 297 297 298 299 299 297 298 298 299 299 296 299 292 287 285 286 286 289 291 292 294 294 294 294 294 294 295 296 297 299 312 313 319 321 324 326 325 328 331 332 334 335 335
313 313 313 313 314 314 313 314 314 314 314 314 315 315 315 315 315 315 315 315 315 315 315 314 314 314 313 314 314 314 308 303 303 302 308 321 320 323 322 322 325 328 311 303 300 298 297 299 298 298 296 295 294 296 297 295 297 291 289 285 285 288 290 292 294 295 294 295 295 293 295 295 296 298 299 308 311 318 319 320 323 324 324 327 330 334 334 334
313 312 313 313 313 313 313 313 313 314 314 314 314 315 315 315 315 315 315 315 315 315 315 314 314 313 314 314 314 310 305 301 300 307 312 324 324 323 324 324 325 327 312 301 301 299 299 297 297 297 295 295 294 296 295 294 294 291 291 287 288 289 291 293 294 296 296 295 294 294 294 294 296 297 300 310 311 308 314 324 323 323 325 327 331 333 333 332
312 312 313 313 313 313 313 313 313 314 314 314 314 314 315 315 315 315 315 315 315 315 314 314 313 313 313 313 313 308 301 294 303 309 313 330 328 324 324 326 328 322 311 301 300 298 298 296 297 297 295 291 291 294 291 292 294 291 290 289 291 291 292 295 295 295 295 295 294 293 293 295 296 297 300 305 302 302 315 323 328 328 328 329 330 331 332 331
312 312 312 313 313 313 313 313 313 313 314 314 314 314 314 315 315 315 315 315 315 315 314 314 313 313 313 313 309 305 300 289 304 308 331 329 330 328 325 328 330 313 303 300 299 297 297 297 295 293 292 292 291 291 290 293 296 290 289 291 291 292 292 294 296 295 294 295 294 293 294 296 293 295 295 295 295 295 314 327 330 330 330 331 333 331 329 328
312 312 312 312 312 312 313 313 313 313 313 313 314 314 314 315 315 315 315 315 315 315 314 314 313 313 313 312 305 304 298 299 307 310 332 334 332 328 327 329 330 305 302 299 298 297 295 296 295 293 293 291 290 291 294 294 295 293 289 289 294 293 293 295 295 295 293 294 293 293 296 296 295 293 298 315 319 315 329 331 331 331 332 332 330 330 327 326
312 312 312 312 312 312 313 313 313 313 313 314 314 314 314 314 314 314 314 314 314 314 314 313 313 313 313 304 302 298 298 299 307 312 338 333 330 328 327 317 308 302 300 299 296 295 295 295 295 297 294 291 291 292 293 293 294 291 289 291 293 294 294 295 294 294 293 293 294 295 295 294 293 295 311 316 324 328 329 331 331 331 331 331 329 327 326 325
311 311 312 312 312 312 313 313 313 313 313 314 314 314 314 314 314 314 314 314 314 314 314 314 313 312 312 304 299 295 294 308 312 319 323 321 322 320 315 310 302 301 298 296 296 296 297 294 296 297 292 292 294 294 292 292 288 291 293 293 293 293 293 293 292 292 293 294 293 294 292 293 292 318 316 318 326 329 330 330 330 330 329 329 328 326 324 324
311 311 312 312 312 312 312 312 312 313 313 314 313 313 313 313 313 313 313 313 314 314 314 313 313 312 305 302 299 290 299 311 319 320 317 316 312 311 308 305 301 299 297 296 296 298 296 296 298 299 299 294 294 292 292 291 288 290 292 292 292 294 294 293 293 293 292 293 292 293 292 293 294 310 306 322 328 329 329 328 329 328 328 328 327 324 324 323
311 312 312 312 312 312 312 312 312 313 313 313 313 313 313 313 313 313 313 313 313 313 314 313 313 309 302 303 296 292 305 310 315 314 315 312 308 306 304 301 301 299 299 296 297 300 300 301 303 302 300 295 295 292 292 291 294 295 295 293 293 293 292 292 291 292 292 294 291 294 292 293 293 306 313 322 329 330 327 327 327 327 327 326 325 323 323 324
311 311 311 311 312 312 312 312 312 313 313 313 312 312 313 312 312 313 312 313 313 313 313 313 313 307 303 300 297 298 308 309 315 312 313 309 306 306 305 301 301 300 298 296 297 299 302 302 303 300 292 298 292 294 293 294 296 295 295 291 291 289 292 290 291 292 292 293 292 292 293 291 290 290 317 326 330 328 327 326 326 326 325 325 324 323 322 323
311 311 311 311 312 312 311 312 312 312 312 312 312 312 313 313 313 313 313 312 313 313 313 312 312 307 300 293 299 309 311 311 312 311 310 308 303 305 304 301 301 299 299 298 298 301 302 302 303 299 300 299 294 292 296 298 295 296 293 290 288 285 286 290 292 293 292 294 292 294 285 284 286 300 322 327 328 328 326 325 325 324 324 323 323 322 322 322
311 311 311 311 311 311 311 311 312 312 312 312 312 312 312 312 312 312 312 312 313 313 313 314 308 304 300 295 304 312 312 311 309 309 307 307 302 302 302 301 301 300 301 300 300 301 303 301 302 301 300 296 294 296 295 292 292 291 290 289 286 283 283 289 292 293 293 293 293 295 286 285 293 315 323 326 327 326 324 325 324 324 323 322 322 322 321 321
311 311 311 311 311 311 311 311 312 312 312 312 312 311 311 311 312 312 313 312 312 312 313 313 307 302 297 301 310 313 325 312 307 305 307 304 300 299 299 300 300 301 301 301 302 303 303 300 300 296 293 297 298 295 289 287 287 286 287 281 282 284 285 288 291 294 291 293 293 294 286 287 301 316 322 325 326 325 323 323 323 322 322 321 321 321 320 320
311 311 311 311 311 311 311 311 311 311 311 311 311 311 311 311 312 312 312 311 312 311 310 305 305 303 296 294 303 319 308 306 307 310 304 305 300 299 300 300 302 302 303 302 304 304 303 302 297 294 294 295 291 283 283 285 283 284 285 280 283 284 284 288 291 292 293 293 293 293 285 286 300 317 322 325 324 324 322 321 322 321 321 321 321 320 319 319
311 311 310 310 310 311 311 310 311 310 310 311 311 311 311 311 312 312 312 312 311 311 308 304 306 305 292 302 310 304 302 304 304 307 303 302 301 300 301 300 300 300 301 302 302 302 299 298 296 296 293 291 286 286 285 278 279 280 284 284 285 286 285 285 289 291 291 292 289 291 289 287 290 311 320 322 323 321 320 320 321 321 320 321 320 319 318 319
310 310 310 310 310 310 311 310 310 310 310 311 310 310 309 311 312 310 309 310 310 310 308 309 304 296 294 302 296 300 305 301 303 304 304 304 302 301 301 300 299 298 301 298 297 297 296 293 293 287 288 288 289 284 281 278 281 281 281 283 286 286 286 287 286 289 293 291 290 289 288 289 293 308 318 320 320 318 318 319 320 320 320 320 319 318 318 319
310 310 310 310 310 310 311 310 310 310 310 310 309 310 311 311 308 307 305 305 299 292 288 293 292 285 288 296 300 301 305 303 303 303 301 303 304 303 302 301 299 297 294 292 291 295 293 293 290 287 285 285 286 287 284 284 286 287 287 286 287 285 287 287 290 293 294 291 287 287 288 286 299 308 315 317 316 316 317 319 319 319 319 319 318 317 317 318
309 310 310 310 310 310 310 310 310 310 310 307 305 305 304 302 300 302 304 305 299 300 301 298 298 297 299 300 300 303 308 305 300 300 301 303 303 300 299 299 296 295 292 290 290 295 295 287 284 283 284 287 288 289 290 289 289 289 289 290 287 287 288 289 291 292 293 290 289 288 288 288 302 310 313 315 313 312 311 313 315 317 318 318 317 317 317 317
310 309 310 310 310 310 310 310 310 309 310 307 304 303 295 297 293 292 300 302 304 304 302 302 301 299 299 303 305 303 300 300 301 299 301 305 299 299 295 295 293 291 288 290 292 298 294 286 284 287 289 289 290 291 291 291 291 289 288 287 286 286 285 290 291 292 295 291 286 287 288 289 300 300 311 310 310 308 310 312 313 315 316 316 316 316 316 316
309 310 309 309 310 310 310 310 310 309 309 306 303 302 303 302 303 307 302 295 301 305 304 304 304 301 305 304 307 307 304 299 300 301 301 303 299 295 292 292 288 288 288 292 290 289 286 284 288 290 292 293 293 293 292 291 291 290 287 286 286 284 286 289 290 292 295 291 286 288 288 288 292 298 306 308 310 310 312 314 314 314 314 315 316 316 315 314
309 309 309 309 310 310 310 310 309 309 305 302 300 302 301 305 309 307 305 299 298 303 303 303 301 302 303 307 307 307 299 297 296 298 298 301 295 296 292 290 289 289 292 291 287 284 285 284 290 293 292 292 291 293 292 291 290 287 287 286 283 284 287 283 288 293 295 292 288 288 288 289 290 292 300 309 311 308 310 313 314 315 314 314 315 315 315 314
309 309 309 309 310 310 310 309 307 302 299 300 301 302 307 308 306 306 302 296 295 299 303 304 304 302 302 302 307 305 300 299 297 296 301 299 295 293 293 290 289 290 287 288 288 286 287 290 292 292 292 292 291 292 292 289 286 286 288 286 285 287 286 286 286 291 291 292 292 288 285 286 287 290 293 298 298 305 307 310 309 311 313 313 313 313 316 315
308 309 309 309 309 310 309 308 298 299 302 301 301 306 307 308 307 305 300 296 294 296 306 304 306 305 306 311 309 304 302 301 299 299 301 300 295 294 291 293 291 286 287 288 288 288 288 293 294 293 292 292 291 289 289 290 284 283 287 289 288 287 289 288 289 287 282 283 289 287 277 281 285 288 290 292 299 302 305 307 308 311 310 312 312 312 314 314
308 308 308 309 309 308 309 298 298 303 301 298 302 306 305 303 306 306 298 289 286 294 301 294 307 299 309 303 305 302 301 296 301 302 302 301 303 296 295 291 292 287 288 288 288 286 288 292 294 292 291 290 290 288 289 290 285 284 287 290 289 289 289 289 289 285 281 282 290 291 282 277 281 289 290 290 297 301 302 305 307 307 308 309 311 312 313 313
308 308 308 308 308 308 295 293 303 301 294 294 300 303 307 306 311 306 299 284 280 296 295 299 299 299 305 302 303 301 288 291 301 301 302 306 300 300 292 288 292 293 292 290 287 285 294 291 292 293 292 290 288 286 289 290 285 283 288 290 289 290 290 290 288 285 283 286 290 288 283 280 282 285 290 290 294 298 301 303 303 306 307 307 310 312 312 312
308 308 308 308 308 306 298 298 300 297 297 298 303 308 309 308 310 303 289 275 276 298 295 296 299 305 303 302 303 298 296 301 295 298 302 302 301 298 295 289 291 290 293 290 282 287 291 290 292 291 290 287 287 287 290 290 287 285 290 290 288 289 289 289 286 285 285 285 282 280 288 283 279 281 288 291 289 291 298 301 302 303 306 307 308 312 313 312
308 308 307 307 307 307 302 301 301 298 301 303 306 308 310 308 303 295 282 275 289 292 304 297 307 302 299 300 299 300 299 300 293 297 300 301 301 296 291 292 290 289 291 291 286 288 293 292 292 292 288 287 288 288 292 292 290 291 290 292 290 290 291 288 284 285 282 280 278 283 284 282 277 279 285 286 289 288 289 296 302 303 305 307 307 309 312 311
308 307 307 307 304 302 303 305 301 303 305 306 306 307 308 302 294 284 279 273 294 288 296 297 297 295 296 293 294 297 296 296 298 299 300 297 298 300 298 296 293 292 291 292 290 290 293 298 298 292 291 290 290 290 292 293 292 294 291 289 286 285 285 285 282 281 279 276 276 281 285 283 279 279 284 285 290 289 288 290 292 297 299 305 307 308 311 311
308 308 306 306 297 299 302 294 299 305 305 306 307 305 299 294 281 276 274 281 295 293 297 294 292 296 293 291 289 294 295 295 296 296 293 297 295 295 296 293 293 287 284 284 288 290 291 291 294 292 298 293 293 291 291 290 290 291 287 285 285 284 281 280 277 279 274 272 276 281 284 284 279 279 284 286 290 291 291 292 293 295 297 303 306 308 311 310
307 306 307 303 301 304 294 291 297 301 301 306 308 298 292 282 286 279 278 298 286 290 291 290 293 293 292 293 293 291 291 294 295 293 290 290 290 290 289 285 287 283 281 281 284 288 288 288 288 291 300 294 290 289 287 286 286 287 285 283 281 278 274 276 275 277 274 276 284 284 285 283 281 280 288 290 290 292 292 292 294 295 297 301 306 308 309 308
306 306 308 306 307 301 301 301 301 301 303 308 302 293 283 276 274 281 285 290 283 294 292 297 293 293 292 292 289 292 295 290 293 293 292 292 291 291 292 291 289 288 281 280 282 283 284 286 289 290 293 295 292 287 283 286 284 286 284 279 277 273 269 268 269 272 276 280 283 284 285 281 280 287 289 290 293 293 293 295 296 299 300 303 305 306 307 307
305 306 301 302 304 304 304 303 303 302 305 304 296 290 282 274 276 296 288 289 288 295 296 295 294 293 292 288 288 292 289 293 292 292 292 289 289 287 289 291 290 290 289 282 282 279 276 280 286 288 288 293 291 288 286 285 283 284 284 286 283 276 275 270 274 270 273 277 280 284 282 279 280 285 292 293 294 296 298 301 302 303 304 305 307 308 308 308
305 304 301 300 302 304 304 305 303 308 303 298 291 281 278 277 279 283 286 289 291 294 291 294 291 290 288 290 291 293 294 290 294 291 290 288 285 285 287 288 290 289 286 282 282 279 283 279 286 291 292 293 291 291 289 286 286 286 285 285 282 281 278 280 276 277 277 277 277 282 279 280 283 291 293 294 297 301 303 304 305 305 306 307 307 307 307 309
302 297 299 298 301 303 304 305 303 303 302 297 289 281 278 282 280 290 288 295 293 290 291 291 289 287 286 287 292 292 296 291 293 291 290 289 289 288 290 291 290 291 286 283 280 281 282 283 289 290 291 291 291 292 292 289 282 284 285 282 282 285 284 276 277 279 274 274 274 273 281 281 284 289 292 291 294 295 298 302 304 304 305 305 305 306 307 310
296 299 295 299 305 307 305 305 305 302 302 293 283 280 282 287 291 294 296 294 293 293 287 284 284 286 284 285 288 290 292 292 291 290 284 291 287 290 291 290 292 291 292 288 282 282 281 279 286 288 289 293 293 292 291 290 288 284 282 282 288 290 287 282 274 273 270 270 271 277 277 279 278 278 289 290 291 292 295 297 300 302 304 304 304 305 307 308
295 295 300 302 303 308 305 305 304 303 298 292 282 287 289 289 297 296 297 295 294 291 287 284 283 290 285 287 287 290 292 289 289 289 286 290 287 297 291 291 293 292 293 292 288 287 285 280 283 287 289 291 291 290 289 291 291 288 284 288 285 278 281 279 278 270 271 270 269 277 277 280 280 283 285 288 290 292 294 296 298 301 303 303 305 305 306 307
295 297 292 299 304 307 305 305 306 302 295 288 281 285 291 293 297 297 297 297 294 291 287 285 284 285 287 284 288 292 292 286 288 285 286 288 285 293 293 293 291 292 292 292 288 285 283 279 281 286 288 290 289 286 280 285 289 288 288 286 286 281 278 279 276 277 277 268 269 274 276 276 285 283 288 288 288 290 295 295 297 298 300 302 302 303 305 307
294 289 288 299 306 308 307 307 303 297 289 283 282 287 292 291 294 296 295 295 291 290 286 286 287 283 286 286 288 285 290 290 287 287 285 289 290 296 292 292 290 291 292 292 288 288 283 282 277 284 287 288 283 285 285 285 282 282 281 279 282 283 284 283 282 280 276 269 265 269 271 277 282 287 289 291 291 290 293 294 296 298 300 301 302 302 303 304
295 289 290 301 310 309 308 303 295 291 287 286 290 290 293 293 294 294 296 296 292 294 291 288 288 285 285 285 286 288 288 290 291 289 290 289 287 283 293 293 293 291 290 290 288 285 281 281 280 280 284 281 284 289 290 288 286 285 281 283 281 281 281 278 274 281 278 276 270 268 269 277 283 293 294 292 292 293 294 297 297 299 301 301 302 304 304 304
292 285 290 303 306 309 301 291 290 290 287 288 288 292 292 302 295 294 294 294 293 290 292 291 289 289 286 286 285 287 288 287 289 289 292 288 291 287 291 294 292 293 289 285 287 290 286 281 279 281 283 285 287 290 290 291 291 289 286 285 284 281 279 274 273 277 279 280 279 278 276 276 287 291 293 293 293 294 296 299 299 299 298 299 300 303 303 303
291 290 300 303 305 307 295 284 287 289 290 289 296 295 297 296 294 294 293 293 292 292 290 289 289 288 289 288 289 287 287 286 289 288 290 292 293 293 293 293 294 293 288 286 288 287 303 277 280 279 281 285 290 290 290 290 288 285 285 285 284 282 285 280 275 278 278 279 278 275 272 276 284 291 292 293 294 295 295 298 299 298 298 299 300 301 302 303
291 291 296 303 304 304 293 285 285 284 288 293 293 293 296 295 293 291 291 291 291 290 290 290 290 290 290 290 288 287 289 282 289 289 288 294 293 298 296 295 294 292 291 289 287 289 283 281 279 274 275 279 283 286 287 288 286 282 282 283 284 285 284 283 281 279 277 280 278 276 272 276 287 291 291 294 295 295 296 297 298 298 299 300 301 302 303 304
291 294 295 299 300 301 289 289 287 282 288 290 290 289 291 292 293 294 293 290 292 290 289 288 292 290 289 290 288 289 291 287 285 290 289 290 294 295 295 296 297 294 299 300 300 293 282 281 278 274 272 271 271 272 274 278 282 282 284 282 283 285 283 281 279 276 275 280 280 273 273 280 286 289 290 290 292 294 296 296 298 298 299 300 300 301 301 302
290 281 288 292 294 294 297 297 294 290 286 286 283 286 289 287 291 293 292 292 292 292 290 290 290 291 289 288 287 287 287 291 287 286 286 287 289 293 293 297 297 296 305 307 300 293 283 282 278 276 275 276 277 280 285 285 282 281 284 283 282 283 282 281 277 272 275 276 274 279 282 281 284 286 287 289 289 289 291 293 295 297 297 298 298 299 300 301
290 285 282 283 291 293 291 296 294 294 287 290 282 288 285 287 289 291 294 289 292 290 290 289 288 286 285 285 284 285 286 286 288 286 286 287 289 291 292 294 294 300 306 302 300 286 282 280 283 282 282 282 283 283 285 285 283 282 283 283 282 281 280 277 275 280 280 277 276 281 281 280 283 284 286 288 289 290 291 291 293 295 295 295 296 297 301 299
283 284 289 290 287 284 286 287 293 293 291 291 286 289 286 286 287 284 290 292 293 292 285 288 287 287 286 286 285 280 283 283 284 280 286 286 287 288 289 291 291 295 298 291 295 288 281 278 284 283 283 283 284 285 286 286 285 285 284 283 282 280 280 280 281 281 279 274 276 281 282 281 282 284 285 287 288 289 290 291 292 293 294 294 294 294 294 296
286 285 288 291 286 291 291 292 292 291 288 291 286 288 286 286 285 288 288 288 289 289 289 279 284 285 285 286 283 281 282 279 280 283 283 284 284 283 283 285 289 290 289 289 290 288 285 280 285 285 284 284 284 284 286 286 285 285 284 284 283 282 280 281 281 280 279 279 281 281 281 280 283 284 286 287 288 289 290 292 294 294 293 294 294 294 294 294
283 283 284 287 288 287 289 291 291 289 286 289 283 285 286 286 285 287 289 287 281 286 290 284 284 285 285 285 284 280 283 284 285 281 286 284 282 284 283 284 283 286 288 288 290 289 285 281 288 284 280 283 284 285 287 286 285 283 284 284 283 282 282 280 280 281 283 281 280 281 280 279 284 285 286 288 288 290 292 291 292 293 294 294 293 293 294 294
287 288 289 284 281 284 288 288 288 287 285 286 284 285 286 286 286 289 287 290 287 286 288 285 287 286 286 285 284 284 286 285 285 286 287 287 283 288 283 283 286 284 285 285 286 286 285 282 284 280 278 281 283 283 284 285 285 284 283 283 282 281 279 280 278 280 278 279 279 281 279 275 282 285 286 287 288 288 288 288 290 291 293 294 293 293 294 294
289 289 290 283 279 285 281 285 288 287 283 286 287 286 285 285 288 289 283 289 290 289 289 289 288 285 284 284 283 284 287 287 288 288 288 289 290 289 288 288 288 285 283 284 285 283 281 281 280 277 276 275 281 281 282 281 281 279 278 282 282 281 281 282 282 283 281 279 275 275 276 281 283 286 284 285 286 286 287 287 288 289 290 291 293 293 293 294
Wind_Speed
13 13 13 13 12 12 12 12 12 12 11 11 11 12 12 11 11 11 11 11 11 10 11 11 11 11 12 13 13 14 10 7 10 5 2 14 9 13 6 12 2 5 5 1 0 1 1 1 1 2 1 1 1 1 1 2 2 2 1 3 3 5 1 4 3 3 1 2 6 8 7 4 4 5 1 4 10 8 8 8 3 12 12 10 10 15 15 13
14 13 13 13 13 13 13 13 13 12 12 12 11 11 12 12 11 11 11 11 11 11 11 11 11 11 11 11 12 12 9 5 10 9 17 8 10 12 12 12 7 7 8 2 4 2 3 1 1 2 2 0 1 1 1 2 1 3 1 2 8 3 5 4 2 3 2 6 5 5 4 3 0 1 1 4 1 2 8 7 7 12 12 14 14 15 14 13
14 14 14 14 13 13 13 12 12 12 12 12 13 12 12 11 12 12 11 11 11 11 11 11 11 11 11 11 10 9 7 5 5 9 14 16 18 11 14 15 10 7 6 3 4 5 3 4 1 3 1 1 1 2 0 2 2 4 4 5 6 4 3 3 4 5 5 5 8 6 4 1 4 0 0 3 3 2 9 7 5 11 12 12 16 14 12 13
14 14 14 14 14 13 13 13 12 12 12 12 12 12 12 12 11 11 11 11 11 11 10 11 11 11 11 11 9 5 3 4 2 4 5 4 16 17 13 14 11 8 4 1 7 4 3 3 3 2 1 1 3 0 1 3 2 2 2 5 2 4 2 5 5 9 8 2 4 5 5 6 3 2 2 6 5 1 2 5 13 14 15 15 15 13 11 13
15 14 14 14 14 14 13 13 12 13 12 12 12 12 12 12 11 11 11 11 11 11 11 11 11 11 11 11 8 3 3 1 0 2 3 2 11 17 14 11 9 6 7 3 5 3 3 3 1 1 1 1 2 1 2 2 2 2 5 3 4 1 1 9 8 6 3 5 2 4 5 5 2 2 4 7 3 5 8 8 5 18 18 19 16 13 12 14
15 15 14 14 14 14 14 13 12 13 13 12 12 12 12 12 12 11 11 10 10 10 11 10 11 10 11 11 4 1 0 2 2 4 1 2 10 14 16 9 9 6 4 3 3 3 4 1 2 1 0 1 1 2 3 2 1 3 4 3 6 5 4 4 4 4 3 1 1 1 4 1 3 3 1 3 4 3 2 7 11 15 17 15 15 15 13 13
15 15 15 15 15 14 14 14 12 13 12 12 12 12 11 11 11 11 11 10 10 10 10 10 10 10 10 7 0 1 1 7 3 9 4 3 9 14 13 9 9 5 3 2 2 1 1 2 3 2 2 0 2 2 7 1 1 4 6 1 7 5 7 10 8 8 5 4 6 3 2 2 1 6 1 2 4 1 9 13 12 12 12 14 14 12 14 12
15 15 15 15 14 14 14 13 12 13 12 12 12 12 11 11 10 10 11 10 10 10 9 9 9 8 7 3 0 1 1 7 12 5 3 7 9 11 12 6 7 5 4 6 5 3 3 4 4 2 0 4 2 5 2 2 0 4 4 4 5 3 7 9 8 7 6 7 6 0 3 5 3 1 2 2 1 8 12 14 13 13 13 11 13 14 12 12
15 15 15 15 14 14 14 13 13 13 12 12 12 11 12 11 11 10 10 10 9 9 9 8 8 5 4 1 1 2 5 8 4 2 7 7 8 11 12 5 5 7 4 3 4 6 5 4 2 3 2 1 1 1 3 1 5 5 10 4 4 5 6 6 5 7 7 4 2 2 6 7 3 5 5 2 2 6 13 14 15 14 14 13 13 12 12 12
15 15 15 15 15 14 14 13 13 13 12 12 12 11 11 11 10 10 10 10 9 9 8 8 7 4 3 1 0 1 4 3 3 6 7 9 10 10 6 6 8 6 4 4 4 5 6 4 5 4 1 3 2 4 0 5 4 3 2 3 6 9 7 6 7 7 5 4 4 4 4 6 1 6 1 1 4 8 11 13 13 15 14 13 13 11 9 12
16 15 15 15 14 14 14 13 13 13 12 12 11 11 11 10 10 10 9 9 9 8 7 7 5 5 1 0 1 4 6 4 1 4 8 9 11 10 8 7 8 6 5 3 6 8 3 4 2 2 1 3 0 4 1 4 1 4 4 4 6 9 7 7 4 8 1 3 7 6 6 2 1 2 8 8 8 10 15 11 13 12 13 13 11 10 9 9
16 16 15 15 15 14 13 13 13 13 12 12 11 11 10 10 10 9 9 8 8 7 6 4 3 1 0 0 3 8 3 3 2 3 6 9 7 10 9 8 9 8 8 5 6 4 4 4 3 1 2 2 2 3 4 2 0 5 2 3 8 7 4 3 4 4 5 3 4 6 0 1 1 3 8 11 12 10 12 12 12 11 11 11 10 8 7 8
17 16 16 15 14 14 13 13 13 12 12 12 12 11 10 10 10 10 9 8 7 6 4 3 1 0 0 3 11 9 5 0 4 5 2 1 2 1 3 6 9 7 9 5 5 8 8 5 3 1 3 0 1 2 0 1 3 1 1 2 5 6 4 7 1 1 4 2 6 5 4 7 5 3 10 11 12 11 12 11 11 9 9 8 8 8 8 6
17 17 16 15 14 13 13 13 12 12 12 12 12 11 11 10 10 10 8 8 7 7 6 6 1 2 0 6 6 3 7 3 3 3 3 3 1 1 2 3 4 4 3 6 5 2 2 3 4 3 0 2 4 3 4 4 3 2 2 3 1 3 4 4 0 0 0 2 4 4 5 8 1 8 11 13 15 18 17 15 10 9 8 7 9 9 9 6
17 17 17 15 15 13 13 12 12 12 12 12 12 11 11 10 10 9 8 7 6 7 6 1 1 1 0 8 7 9 10 2 3 5 6 6 4 2 4 3 4 7 5 5 2 1 4 4 1 1 4 3 3 3 5 3 4 2 2 3 4 1 7 7 5 3 3 1 2 5 3 6 7 10 12 13 14 16 17 14 13 9 8 9 9 9 8 7
18 17 17 16 15 14 13 12 12 12 12 11 11 11 11 11 10 8 7 6 3 3 3 2 3 2 1 7 3 1 4 2 5 11 4 8 6 3 5 6 0 2 2 4 5 2 1 1 2 6 3 0 2 3 3 5 3 5 1 3 3 0 4 8 2 1 8 4 2 6 6 2 4 11 13 12 14 12 12 11 9 9 10 8 9 8 6 6
18 17 17 17 16 15 14 12 11 11 11 11 12 12 12 11 9 5 4 4 2 2 2 1 2 2 1 4 4 4 2 4 2 2 3 4 5 4 5 3 3 3 1 4 3 1 1 3 2 1 3 2 2 4 1 4 4 3 1 1 2 1 2 3 7 4 5 5 3 4 4 3 2 10 9 10 12 11 10 10 10 8 6 8 7 7 8 8
18 17 17 17 16 16 14 13 11 11 12 12 11 9 8 9 5 4 1 1 1 2 3 3 2 2 10 3 4 2 2 4 3 6 7 4 7 1 3 1 0 1 1 2 1 3 2 3 3 4 2 2 1 2 4 4 4 0 1 4 6 1 2 6 3 3 0 1 5 2 5 1 3 11 12 11 7 7 9 11 11 13 11 8 7 6 7 8
18 18 17 17 16 16 15 13 11 11 11 12 12 9 4 1 0 1 0 1 1 0 1 1 2 2 2 1 4 6 3 5 1 6 3 3 2 2 0 1 2 0 1 1 3 1 1 1 4 2 3 0 2 7 8 5 4 3 2 3 2 4 5 3 6 5 2 6 4 5 6 4 4 8 6 7 7 10 12 13 12 8 6 6 6 6 8 8
19 18 18 17 17 16 15 13 11 10 10 7 5 1 1 0 0 0 0 1 4 7 7 6 8 4 10 9 5 3 4 1 4 5 3 4 5 4 0 1 1 2 1 2 1 0 0 1 5 5 7 7 4 6 8 7 5 1 1 1 6 5 7 5 5 6 1 2 7 4 1 5 7 12 10 9 6 6 4 4 5 8 9 9 8 10 9 8
19 19 18 18 17 16 15 12 9 8 8 4 5 0 2 0 2 2 3 8 8 9 9 7 14 11 10 2 0 3 4 4 0 2 4 2 4 6 2 3 1 1 3 3 3 1 2 0 7 9 9 10 5 2 0 0 1 3 2 3 6 3 6 4 4 4 5 4 2 3 6 5 8 5 9 8 7 8 8 7 7 10 11 9 11 11 9 5
21 19 19 18 18 17 16 13 8 7 3 2 2 1 2 3 2 1 1 6 5 14 12 16 5 8 6 9 2 2 1 2 8 6 1 6 2 5 2 3 3 5 1 1 2 2 1 6 9 10 6 1 1 3 4 4 3 1 4 3 1 6 5 9 3 4 3 2 1 1 8 5 4 5 7 9 12 9 9 13 14 13 12 11 11 10 6 5
21 21 19 19 18 17 16 14 6 2 2 2 2 1 4 6 1 3 1 3 10 4 10 9 5 11 11 5 3 7 4 4 5 3 3 5 2 7 4 3 4 2 1 3 5 1 3 6 13 2 5 4 2 4 4 2 1 3 1 1 4 3 2 6 6 5 7 2 2 3 8 3 3 1 6 12 13 5 5 9 8 12 16 17 15 13 12 10
21 21 21 20 19 18 16 14 7 2 3 5 2 7 5 1 2 3 2 3 6 4 6 7 9 3 8 4 4 9 6 3 4 5 2 6 7 4 2 4 2 0 4 4 6 7 8 10 4 4 4 4 4 1 1 1 5 1 4 2 1 1 3 4 5 5 5 2 4 5 7 2 4 5 3 6 4 1 2 3 3 4 3 2 1 4 9 14
21 21 21 21 20 20 19 13 1 3 3 1 6 9 10 6 4 5 1 4 2 5 3 1 5 4 5 3 5 5 3 1 6 3 4 8 4 4 4 2 2 4 3 4 3 2 9 10 2 2 1 1 3 3 4 5 3 3 5 7 5 2 3 4 2 3 6 3 5 2 3 1 4 3 6 3 0 4 2 7 9 8 5 6 9 10 6 4
21 22 22 21 21 21 18 1 1 2 2 5 6 4 4 4 1 3 3 2 5 5 3 2 4 3 4 2 4 4 4 3 7 6 7 7 6 5 1 1 3 5 2 3 4 4 6 3 2 5 4 4 4 5 5 8 6 1 5 7 5 4 1 3 1 3 1 2 2 2 4 2 3 2 3 2 5 6 2 9 9 4 6 6 7 7 8 7
20 22 20 20 18 18 5 1 1 3 3 3 2 6 8 3 1 2 3 4 3 2 3 0 1 1 1 3 5 4 1 7 1 4 4 4 7 1 4 5 1 0 3 2 3 4 0 3 4 1 1 3 3 4 4 8 6 3 2 6 5 3 0 1 5 2 2 2 3 5 4 2 0 1 5 1 5 5 6 8 6 7 8 8 6 6 7 8
22 22 20 19 16 10 3 3 6 1 5 4 5 8 9 4 1 3 3 2 1 2 1 1 3 1 0 0 9 6 4 0 3 4 8 4 5 0 4 5 7 5 2 2 4 5 1 4 0 1 1 2 6 6 5 7 5 4 1 5 3 2 3 3 3 3 0 1 4 5 4 2 2 4 3 2 4 3 8 10 9 9 9 9 7 6 7 7
23 21 20 17 17 13 3 2 1 5 3 3 7 8 7 3 3 5 3 1 2 0 3 1 5 1 1 2 4 6 3 0 1 1 2 2 3 5 3 6 4 4 1 4 7 4 2 5 3 3 4 5 5 4 9 9 1 4 2 3 4 5 5 3 1 3 2 4 1 1 1 2 4 5 5 1 1 3 6 9 11 12 13 13 9 6 6 4
24 23 19 16 11 1 2 4 7 8 4 8 9 9 3 2 3 2 2 3 1 1 1 1 1 2 3 4 3 4 6 2 2 1 1 4 4 1 0 3 3 1 3 2 1 7 4 5 6 4 5 7 6 2 6 9 7 2 4 2 2 7 3 3 6 2 4 1 3 2 2 4 1 4 4 0 0 2 2 4 4 5 6 5 5 7 8 7
24 22 18 13 2 3 2 4 10 9 6 5 8 5 2 8 2 2 1 4 1 2 1 0 3 2 3 5 4 4 5 1 1 3 2 2 1 1 1 3 5 3 3 3 3 5 5 1 0 3 1 2 2 2 2 1 2 2 2 2 2 1 6 4 4 5 3 2 3 3 1 1 4 3 5 7 5 2 5 6 7 9 11 11 8 7 8 7
23 22 18 8 6 1 3 5 0 1 3 6 4 4 4 3 3 3 5 3 1 2 2 2 1 0 1 2 3 3 6 2 2 2 4 5 5 6 4 6 4 1 2 2 6 3 3 3 2 7 3 7 2 2 2 3 4 6 6 7 3 2 3 2 3 1 1 3 1 1 1 2 2 5 5 6 6 6 5 7 9 9 10 8 7 7 6 5
24 21 23 12 9 6 8 12 5 6 7 5 3 4 3 3 3 5 4 2 1 1 1 1 2 3 2 2 3 3 1 4 3 4 5 1 7 8 4 4 4 6 4 3 2 1 5 4 4 5 4 1 5 5 1 1 2 4 3 4 5 1 1 2 1 1 2 4 4 0 1 1 3 4 2 6 8 5 3 3 3 3 4 6 7 7 8 5
24 22 11 4 8 12 6 2 4 3 1 3 2 5 6 2 5 4 4 3 4 2 2 2 8 3 2 4 4 4 2 2 6 3 4 3 5 3 4 2 4 1 1 2 3 4 1 1 4 1 1 2 3 6 9 4 4 6 3 9 7 7 4 3 3 3 5 6 1 3 1 3 3 0 8 7 4 4 4 4 5 7 6 7 8 10 10 8
26 17 8 5 5 10 13 7 3 2 1 3 5 4 5 6 2 2 3 3 2 2 4 5 3 3 2 1 2 1 1 1 3 3 4 6 4 3 5 5 4 4 2 3 2 2 3 4 4 4 3 1 3 2 3 5 3 1 3 6 6 5 7 2 4 3 2 2 1 1 2 3 3 2 4 4 5 8 6 7 7 9 6 8 9 9 8 9
16 5 3 4 3 5 11 8 5 2 5 5 5 2 7 6 2 3 1 3 1 3 6 7 2 1 1 1 2 2 4 2 3 2 1 3 3 6 2 2 5 10 6 7 4 2 2 1 1 7 3 1 1 2 1 3 2 2 3 3 4 3 9 6 1 2 4 5 2 0 3 3 6 5 7 6 6 6 7 5 8 8 8 9 9 8 8 8
6 7 3 2 3 3 8 10 8 6 6 6 4 6 5 3 6 1 2 2 0 2 3 5 4 1 1 1 0 2 2 2 2 1 1 1 1 0 1 3 4 5 8 9 2 4 7 4 3 2 1 1 1 2 4 3 3 5 1 5 2 2 6 5 2 3 4 2 3 2 0 3 3 1 6 5 4 5 5 5 4 4 5 11 5 5 6 9
7 3 5 4 6 4 9 11 11 5 6 6 6 6 2 2 2 3 2 5 2 3 1 1 5 4 3 1 2 2 2 3 3 2 2 1 1 1 2 2 2 5 9 1 5 2 4 0 2 1 2 6 4 4 5 2 1 1 4 3 4 1 1 3 6 0 1 1 2 2 1 1 2 1 4 2 1 1 3 3 3 4 6 6 8 7 7 5
3 2 4 3 3 9 8 13 8 8 6 3 4 1 4 4 2 1 2 2 2 1 1 4 3 1 2 1 1 1 2 2 0 1 1 1 1 1 0 2 1 4 2 4 3 1 2 3 3 2 1 2 4 5 1 6 7 1 2 1 0 4 2 3 4 4 6 2 2 2 4 0 1 2 1 6 5 2 4 4 3 2 4 3 4 4 3 6
3 2 2 5 2 4 10 6 6 6 5 7 5 3 2 1 2 3 4 1 2 1 3 2 3 3 1 5 3 4 2 4 3 2 2 2 2 1 0 3 0 4 6 2 3 0 1 1 3 2 3 2 2 1 2 1 1 5 6 4 3 3 1 5 1 1 4 5 4 3 1 4 6 4 3 6 5 6 5 5 3 4 4 4 4 4 4 4
2 1 1 4 3 5 4 2 5 5 5 1 2 2 1 1 1 1 4 4 2 3 6 3 2 2 3 1 4 2 1 2 2 2 0 2 3 0 2 0 1 4 3 3 6 2 3 1 5 3 4 3 2 2 0 1 1 3 2 1 2 1 4 4 3 1 2 5 4 5 3 5 8 1 1 4 5 2 5 5 5 2 1 3 4 4 4 3
2 3 3 7 6 2 1 5 1 1 2 3 3 3 1 4 2 4 3 3 7 3 3 3 5 6 4 5 4 2 3 2 1 2 1 2 2 4 1 1 4 1 3 1 0 2 2 3 5 1 1 3 1 3 4 2 7 7 6 2 3 2 5 5 4 3 2 1 5 4 6 5 6 1 1 3 3 2 4 10 5 5 2 2 2 3 4 3
3 2 5 6 10 2 2 3 2 1 2 2 2 2 1 1 2 2 2 2 2 4 2 3 4 4 3 1 1 1 4 1 3 5 2 1 1 2 2 5 7 5 4 1 0 1 4 2 3 2 3 4 3 4 1 3 2 5 5 1 2 2 1 5 2 6 6 2 2 2 1 4 4 4 4 5 4 1 2 2 11 5 4 3 4 4 4 4
1 1 5 7 13 1 2 1 0 2 4 5 2 3 2 3 2 2 3 1 0 2 1 1 4 1 1 1 3 2 2 1 4 2 3 2 0 3 1 1 5 2 1 2 2 3 1 2 4 3 2 1 4 6 5 6 6 3 1 3 2 1 3 1 4 1 5 3 5 8 4 2 3 7 8 9 5 4 4 4 5 10 4 6 6 5 5 6
2 1 2 7 13 9 5 1 1 2 2 0 4 4 2 1 3 7 4 3 2 2 1 2 0 5 2 2 3 2 6 2 2 5 1 2 0 4 4 6 8 3 2 4 2 2 3 1 2 2 5 5 3 2 3 2 1 2 1 4 4 6 4 2 1 3 4 1 5 4 2 3 4 9 11 10 8 5 4 3 4 5 9 9 8 7 7 7
4 2 5 6 8 8 3 1 1 0 3 2 0 1 2 2 4 6 5 5 3 2 5 2 3 3 4 4 5 7 7 8 6 1 5 4 4 3 3 6 5 3 5 10 4 6 2 1 3 3 4 6 3 4 2 5 2 4 2 2 4 2 2 6 5 4 3 3 3 1 4 3 4 8 9 10 8 7 6 5 3 2 2 2 3 4 3 3
1 5 3 6 4 6 5 5 9 6 3 2 2 3 5 3 3 3 9 2 7 4 3 10 5 4 4 4 3 4 4 3 7 5 5 3 3 1 5 7 6 9 4 6 2 6 3 3 2 3 6 2 1 2 1 3 5 1 1 3 4 3 2 3 1 1 4 8 2 1 0 5 1 4 6 8 8 6 6 6 5 6 6 4 3 2 4 4
5 1 2 2 2 4 6 9 11 8 11 6 3 2 3 6 10 3 5 4 1 6 3 5 12 8 2 1 2 4 5 3 5 3 5 3 3 7 4 6 5 7 4 2 2 5 3 2 0 3 4 4 2 5 6 9 5 3 4 2 2 3 3 4 0 1 2 2 7 2 3 5 1 3 6 5 4 4 5 6 5 4 5 6 7 9 8 6
4 0 0 2 3 3 1 2 4 5 13 12 0 7 7 9 9 4 1 3 6 7 6 3 6 9 8 5 4 3 2 2 3 3 2 5 3 4 4 4 3 9 6 2 4 1 6 0 1 2 5 4 3 4 5 12 4 6 6 4 3 7 5 5 4 3 6 7 7 9 9 7 3 4 6 5 5 3 3 4 10 13 10 9 10 10 10 8
4 3 4 5 1 2 4 1 2 10 9 13 4 10 5 7 8 7 6 6 2 4 4 6 3 5 8 10 7 5 1 2 1 1 1 1 4 4 1 1 3 6 5 1 0 1 5 2 4 2 4 2 3 5 9 9 7 6 4 6 4 4 9 6 4 5 11 8 4 8 10 6 3 2 4 4 3 2 12 15 11 9 11 11 12 12 11 11
2 1 0 2 6 7 4 5 4 8 7 10 9 8 6 12 6 6 7 4 5 2 2 2 0 1 4 8 8 4 1 1 2 4 4 1 1 1 2 2 2 3 6 2 2 2 4 1 3 2 4 0 1 5 7 9 12 10 5 7 5 4 7 4 4 3 1 8 4 9 7 2 3 7 3 5 10 14 12 11 11 9 9 11 12 11 11 10
1 2 2 1 4 6 4 6 6 4 7 4 6 7 5 9 8 4 3 5 7 6 2 0 1 5 4 9 7 4 5 3 6 8 5 6 5 5 4 3 1 1 3 1 1 2 1 5 3 3 5 2 1 1 6 5 5 5 3 2 3 7 6 6 5 8 4 4 6 7 3 1 1 3 5 8 9 10 12 9 9 10 9 9 9 9 8 7
Wind_Direction
319 316 315 314 313 313 311 313 313 312 313 311 313 315 316 317 316 315 315 311 315 315 315 312 311 315 314 320 323 321 344 334 311 310 247 241 197 222 181 214 110 195 148 149 0 17 15 22 24 335 47 88 250 117 240 126 172 92 164 128 256 203 171 217 181 180 203 266 300 333 330 21 352 348 83 36 45 71 62 51 15 43 51 74 85 106 125 125
318 316 314 314 317 315 315 313 313 314 314 312 312 312 313 315 316 315 315 317 317 314 315 313 313 315 320 319 322 333 347 305 292 272 239 222 191 195 210 220 132 130 122 108 143 151 107 33 3 88 71 162 302 218 137 234 144 142 156 129 231 177 236 170 205 259 306 279 282 298 308 330 233 175 341 82 67 65 61 49 65 80 77 86 99 123 127 127
319 317 317 318 313 310 310 309 309 308 308 310 309 312 312 312 313 316 316 317 315 318 314 318 318 321 316 319 330 357 342 311 276 267 259 231 219 191 208 220 181 162 171 153 195 143 139 149 101 80 31 66 328 214 15 253 151 233 136 240 242 211 239 238 237 256 217 255 295 321 306 46 283 208 314 120 118 27 129 124 73 109 116 116 127 133 128 132
317 318 316 312 313 310 308 308 308 309 309 309 309 309 311 310 312 312 315 314 314 312 322 316 317 319 316 321 338 353 348 288 294 247 258 208 194 199 201 211 189 193 177 342 151 139 155 87 63 81 71 91 287 59 309 261 128 283 146 215 234 213 228 266 224 237 249 189 277 297 296 331 294 319 103 133 81 324 295 206 154 156 138 138 143 142 137 135
319 317 317 313 310 310 307 306 309 309 308 307 307 308 308 311 313 310 310 312 313 315 318 314 321 319 321 321 339 10 336 19 122 235 246 119 173 190 195 197 166 169 179 158 92 86 95 109 93 41 87 257 328 26 250 278 199 96 214 199 219 265 264 260 255 257 264 200 259 302 333 273 286 73 104 148 149 223 202 198 181 146 146 147 152 147 141 138
318 318 316 313 310 307 305 306 308 307 306 305 305 306 306 309 310 310 308 308 311 315 314 318 318 322 322 327 316 154 150 79 289 272 32 286 164 179 191 167 157 135 150 99 126 120 101 41 87 61 26 87 221 146 268 221 128 242 303 242 228 222 229 266 259 241 183 259 200 13 240 339 12 319 182 145 187 246 192 136 159 155 154 144 138 140 142 140
320 318 317 312 309 305 303 304 308 303 303 303 301 302 305 304 308 307 307 308 308 309 311 315 315 325 335 337 329 99 99 270 307 254 20 90 163 167 170 149 135 120 134 117 125 120 115 105 108 189 105 48 284 185 252 254 198 195 245 271 285 225 221 258 271 269 267 235 250 211 337 279 319 308 136 73 290 182 115 123 137 138 134 140 140 146 144 148
320 318 316 313 308 304 302 304 304 303 301 299 300 300 302 303 303 304 305 306 304 303 312 309 314 332 355 6 5 345 51 253 247 252 112 100 117 138 136 117 129 127 139 181 146 141 128 130 160 146 131 149 225 165 263 181 230 209 261 252 262 292 243 255 257 268 256 245 251 290 243 250 205 243 62 351 54 119 119 126 133 137 136 140 143 147 152 151
326 320 317 313 308 305 302 304 302 299 298 296 297 299 298 301 302 303 303 299 297 296 298 304 316 354 14 101 80 341 265 234 229 135 100 92 114 122 130 135 151 145 167 158 166 169 141 224 144 174 229 245 219 250 271 232 308 209 224 232 266 267 275 259 283 266 246 258 173 154 234 259 211 108 48 332 51 122 124 127 136 139 140 144 153 160 159 159
330 325 318 314 309 305 306 303 300 298 295 296 297 296 296 296 297 295 298 300 296 292 292 302 320 42 51 38 291 19 263 208 48 121 111 111 111 125 145 124 147 148 147 197 148 152 181 198 170 210 152 248 205 232 170 134 237 163 240 230 254 267 273 271 231 259 229 211 180 190 228 248 249 118 263 97 128 133 124 134 144 147 148 152 161 164 169 162
335 328 323 315 311 311 306 301 298 297 296 295 295 293 292 292 293 293 293 298 297 294 298 303 326 56 33 309 125 224 263 11 105 117 121 123 122 136 175 152 158 157 166 163 187 191 133 125 172 128 130 228 157 274 161 227 199 286 278 322 294 271 272 258 303 267 135 261 194 184 234 287 339 88 176 168 156 154 138 147 154 153 152 161 161 167 176 174
338 334 328 322 316 310 306 301 297 297 298 296 291 289 289 288 288 291 288 287 292 302 302 288 4 82 158 114 204 226 302 342 111 125 131 137 156 182 166 160 165 171 166 181 217 212 194 167 144 87 203 35 315 323 293 237 112 260 302 327 290 342 322 290 221 238 159 246 147 158 52 313 316 218 182 153 152 158 147 148 155 156 160 161 162 166 178 181
341 338 335 327 319 313 309 306 305 303 301 294 290 287 286 287 287 287 288 286 279 278 277 302 338 84 49 316 229 235 284 329 113 111 118 152 57 91 162 160 177 174 179 176 204 207 198 170 138 149 239 99 230 213 243 81 262 7 71 171 331 350 329 274 238 251 153 246 151 138 292 264 277 207 158 150 151 154 152 155 160 159 159 158 168 178 182 181
342 340 339 334 327 319 314 309 304 301 296 293 290 287 286 287 289 286 282 275 269 259 263 260 92 35 133 243 274 234 238 216 92 106 198 142 70 228 156 194 189 186 190 207 244 221 142 150 153 208 165 165 255 285 354 334 17 253 263 69 250 5 273 297 313 260 273 241 169 120 219 271 241 184 166 162 158 161 168 170 161 155 155 164 176 182 186 189
343 342 340 339 333 325 318 312 305 301 299 297 297 295 292 285 276 279 281 283 270 256 255 286 53 121 4 267 263 265 235 70 186 225 169 151 176 96 194 196 201 205 211 217 224 108 119 119 94 338 259 233 213 290 298 4 357 350 31 295 324 147 279 291 274 215 225 298 181 122 242 248 181 185 182 170 173 167 163 168 168 159 163 174 179 183 185 183
342 342 341 340 336 330 322 315 311 308 305 302 298 293 285 278 278 283 278 271 290 267 50 30 218 205 340 293 255 175 99 139 235 219 203 161 179 190 193 177 164 208 205 265 227 266 326 107 203 210 237 317 73 85 35 19 338 357 72 264 286 263 256 346 325 237 209 195 311 163 217 93 221 200 181 179 170 171 157 163 160 166 172 174 185 184 178 165
342 341 341 340 338 334 327 320 314 310 308 303 297 289 286 283 280 271 278 272 222 209 202 136 125 194 314 234 303 342 243 231 210 123 161 196 186 173 109 115 230 258 231 288 302 76 272 144 272 65 15 142 150 96 339 9 316 315 11 215 214 280 320 302 295 285 220 169 221 233 207 226 206 187 187 179 171 160 168 154 163 172 177 192 186 184 180 181
341 340 339 340 338 336 331 324 320 314 312 310 305 293 282 275 284 330 320 66 191 188 239 248 228 315 276 317 302 272 277 295 163 179 184 190 182 186 118 145 343 142 224 283 15 179 218 203 40 197 357 9 86 79 124 226 202 226 329 1 328 316 199 241 311 265 31 240 200 203 207 258 182 170 185 179 154 148 164 162 173 189 187 184 196 190 187 185
342 339 338 338 337 336 334 328 321 318 320 323 311 298 267 144 18 164 197 150 120 40 352 221 135 149 148 211 276 304 283 225 32 113 214 162 197 178 133 104 98 55 307 81 274 136 341 102 26 40 235 34 212 167 174 211 167 222 195 230 223 294 290 262 245 264 253 267 234 181 202 189 142 166 163 161 161 166 185 186 185 165 156 177 196 199 193 193
341 339 337 336 336 334 335 330 323 317 329 331 355 4 119 31 6 291 267 242 228 218 248 202 205 273 305 283 276 245 277 288 161 229 166 179 115 154 209 99 25 67 112 197 272 188 133 164 213 220 225 220 227 181 192 210 177 109 142 202 264 269 280 264 260 261 172 203 237 206 114 138 169 170 170 165 147 176 205 211 173 168 166 185 195 202 195 191
339 339 337 334 333 334 331 333 321 316 327 327 313 311 319 159 28 293 231 228 222 232 237 240 190 212 229 282 179 28 21 316 240 253 216 112 93 110 254 115 91 247 246 202 168 284 71 262 251 224 218 210 204 219 243 75 151 208 254 244 277 219 264 261 284 338 344 149 329 124 131 160 169 162 159 158 164 206 174 188 188 178 187 184 192 199 191 180
338 337 336 334 331 331 332 331 334 316 339 350 295 206 257 216 219 211 79 306 262 222 227 239 226 257 263 261 260 119 84 271 314 285 285 141 187 151 281 132 144 198 277 107 17 356 27 216 242 226 230 175 160 137 165 187 222 176 195 216 228 269 249 287 301 308 17 89 308 152 129 156 155 157 160 175 194 203 183 188 185 177 184 189 199 195 164 156
335 335 334 333 330 327 329 326 315 23 330 249 216 221 233 229 70 18 51 263 280 205 212 226 224 242 262 257 226 144 161 206 236 284 204 136 100 190 158 130 189 189 82 108 170 177 278 272 251 194 146 170 253 171 149 120 81 163 233 160 239 241 11 303 301 352 349 56 192 134 111 100 318 331 208 199 197 218 203 194 188 182 180 190 193 182 178 173
333 333 332 332 329 327 318 324 312 33 203 215 247 224 244 4 3 350 155 246 290 294 206 211 196 192 226 213 198 159 158 234 149 268 179 135 164 187 116 165 153 162 215 168 171 175 216 239 168 95 127 155 232 298 229 299 288 283 209 184 228 278 232 181 286 330 326 3 79 66 50 12 5 122 222 260 309 343 122 163 232 240 254 293 269 202 185 178
328 331 331 329 330 327 318 315 8 224 178 201 242 249 262 273 258 189 80 324 338 281 266 286 171 224 225 104 114 142 216 275 211 202 171 159 162 94 220 181 121 232 190 157 121 209 271 268 195 234 156 140 177 264 237 153 235 309 238 191 204 184 256 289 350 21 25 343 353 94 53 276 306 282 194 246 242 238 184 177 216 209 204 192 192 193 193 210
328 330 332 330 329 331 312 339 309 323 305 266 242 277 284 332 201 172 94 73 296 269 335 270 153 270 141 208 150 147 93 254 214 205 169 189 162 146 119 189 141 232 188 145 182 201 222 297 143 250 205 167 170 200 232 167 192 121 267 189 197 179 161 276 348 71 8 100 341 13 125 246 322 233 232 249 195 217 190 202 214 194 211 213 208 189 188 187
327 329 329 330 330 338 11 280 340 280 334 302 306 320 321 348 126 96 47 346 346 247 153 258 96 273 204 215 142 110 80 261 298 147 174 137 178 169 134 232 23 168 161 154 45 285 174 306 7 21 174 149 150 239 241 153 120 223 237 134 116 103 143 224 105 113 195 240 285 38 93 137 323 294 272 283 183 206 212 221 217 206 202 214 210 193 185 178
325 326 327 327 326 334 211 314 345 309 227 258 333 327 319 341 79 42 84 3 326 252 177 217 213 14 268 78 145 165 200 137 98 246 189 163 107 321 196 202 184 181 172 119 223 254 149 319 312 333 149 127 195 209 182 149 144 215 172 146 141 155 192 128 98 114 308 111 284 327 351 70 266 263 289 302 132 226 231 218 215 217 212 214 206 194 190 183
324 324 324 323 320 312 239 200 174 243 233 322 314 315 322 15 89 110 116 88 250 98 277 108 291 75 214 79 189 209 262 288 123 262 59 73 183 135 209 216 169 173 265 148 208 292 279 206 236 158 137 209 234 218 165 152 147 280 176 100 83 79 77 83 89 78 344 64 276 274 352 146 288 283 343 327 151 178 247 239 224 210 207 205 195 187 178 168
321 322 322 321 324 84 175 208 231 238 320 318 309 306 341 52 34 39 351 255 334 10 159 226 208 220 126 142 215 216 235 291 153 56 111 151 213 15 43 118 132 122 234 6 219 222 260 304 165 132 196 207 207 212 177 177 188 151 92 60 21 42 31 31 62 91 66 26 262 250 299 139 296 270 222 71 227 188 235 291 251 233 240 222 189 176 174 173
318 317 315 317 279 250 140 285 252 249 250 284 295 322 63 41 118 111 214 231 304 249 354 65 229 28 136 159 212 228 222 214 330 119 77 50 41 60 29 14 45 56 33 355 293 315 337 338 93 247 200 86 147 110 30 27 28 134 64 113 75 358 15 28 346 43 99 270 261 259 183 96 164 295 297 244 280 203 194 225 236 206 204 198 187 172 172 164
316 313 304 297 212 296 201 229 229 68 334 320 8 52 81 231 9 164 215 331 68 283 68 302 296 60 245 315 342 193 183 185 214 117 141 171 169 173 223 180 167 102 318 236 253 2 316 250 256 313 219 153 119 127 255 28 17 78 77 44 107 241 46 233 7 192 188 170 173 321 110 38 225 213 251 282 255 269 221 221 225 210 195 183 167 155 145 138
316 310 305 279 231 215 244 249 312 322 332 347 50 48 71 107 220 247 269 326 241 86 301 245 290 336 263 142 248 254 277 185 256 214 126 56 148 215 215 178 181 146 204 254 225 14 268 287 344 292 306 165 138 156 261 131 351 112 128 119 90 89 53 210 277 288 318 291 261 308 271 227 246 301 263 268 302 298 296 218 172 166 170 141 123 113 108 110
313 312 305 230 199 211 217 192 225 268 336 41 77 42 54 102 241 227 230 243 245 306 319 15 325 310 219 196 238 168 235 243 161 227 137 166 148 205 265 259 140 290 136 141 178 195 68 353 294 117 247 285 141 164 181 172 164 215 150 145 180 144 159 211 191 186 206 181 263 296 63 229 110 246 319 288 310 16 38 64 78 84 103 110 109 104 102 102
314 300 262 272 239 230 222 199 186 197 80 71 61 92 149 230 243 195 225 283 274 299 331 321 322 327 313 267 290 62 161 285 183 130 164 123 211 167 185 226 228 113 129 136 258 81 178 194 257 230 257 56 232 303 122 103 86 190 150 78 98 228 148 161 205 144 179 164 28 183 203 177 104 259 326 15 25 37 32 59 69 83 85 98 95 101 109 108
318 303 210 259 215 252 188 188 179 163 118 81 96 151 212 189 206 189 243 189 355 12 316 342 44 20 254 248 318 89 355 102 320 102 326 175 208 186 222 207 186 184 148 173 196 183 15 287 269 316 328 150 217 156 294 108 187 254 115 176 211 158 104 90 60 70 95 54 254 223 324 330 294 349 11 346 28 28 14 30 83 91 95 85 94 99 98 97
326 329 359 253 251 205 163 156 161 145 106 110 117 233 203 270 203 221 282 22 18 339 49 43 299 119 273 281 317 352 293 48 315 112 262 195 2 290 306 286 182 192 197 142 286 186 146 236 296 56 25 335 354 157 95 51 139 79 152 234 103 91 118 122 152 338 58 137 255 30 212 320 38 214 328 352 35 16 29 8 354 73 90 105 91 95 115 125
319 301 254 272 246 145 146 149 142 127 99 117 192 222 197 203 268 206 322 358 359 35 29 134 272 138 281 144 274 205 299 117 277 47 230 218 180 189 268 234 206 194 213 235 145 260 114 328 293 264 237 280 342 65 23 327 64 157 206 183 100 207 168 335 96 83 95 238 273 8 313 281 145 258 342 347 349 72 39 26 8 63 76 94 109 105 92 81
267 337 354 314 324 139 145 153 145 124 93 133 214 132 257 223 259 308 309 319 231 275 246 238 184 289 184 231 216 297 175 162 110 102 138 292 126 243 219 195 292 13 27 176 130 175 49 156 286 299 136 307 29 60 39 297 329 61 64 20 56 99 155 120 190 165 117 215 86 277 50 208 233 216 234 265 263 245 159 148 115 18 48 43 51 55 75 115
355 21 340 324 50 120 145 158 99 83 94 182 203 212 204 230 262 256 260 237 291 150 236 241 215 258 266 219 168 171 256 145 139 216 122 263 122 242 211 5 255 359 42 47 119 107 83 110 188 281 290 10 34 337 174 177 341 342 22 338 3 21 222 107 46 89 158 161 170 155 345 281 263 213 206 262 268 254 197 175 125 106 101 94 78 73 71 38
289 86 279 337 34 136 164 58 93 156 159 244 150 211 287 245 304 287 265 225 238 246 225 222 235 260 228 287 290 180 148 160 102 92 126 325 131 22 284 256 307 25 353 24 56 2 85 59 179 302 28 24 205 264 163 118 197 125 151 76 183 121 125 132 237 20 76 105 190 120 220 270 271 204 233 268 270 243 215 136 126 97 102 105 112 98 68 48
28 30 316 359 357 257 36 104 24 201 107 160 211 179 229 218 271 262 263 255 188 257 238 235 250 236 234 243 197 187 133 155 136 112 172 195 234 144 238 110 100 105 105 44 160 258 144 144 92 83 146 158 192 22 354 73 106 97 108 27 145 147 100 93 132 243 36 60 113 134 119 271 247 289 349 289 294 296 208 136 130 129 106 81 53 76 77 70
45 243 262 327 359 183 65 41 310 60 183 234 300 285 229 303 240 241 303 271 290 209 237 200 217 189 234 231 254 101 133 103 160 182 172 199 321 271 198 172 119 52 79 339 49 289 90 68 65 323 324 314 324 311 341 70 78 31 15 43 68 16 258 168 177 180 135 174 87 47 72 252 286 347 352 344 354 352 10 102 132 113 111 94 109 99 103 101
263 288 322 342 349 111 76 133 342 319 324 327 316 260 205 212 206 305 225 296 9 322 258 336 337 41 138 66 62 39 2 118 344 131 152 149 230 230 177 40 94 73 71 213 124 261 74 306 123 96 39 343 342 348 359 345 51 78 14 323 337 97 71 136 106 75 97 207 163 118 183 264 286 1 5 13 9 58 89 81 113 123 130 139 141 144 150 154
305 288 6 325 353 36 88 291 120 256 266 7 286 308 316 285 235 236 217 27 347 307 349 356 279 325 359 62 57 11 25 96 141 356 91 63 333 355 330 92 103 102 134 177 112 108 83 162 96 149 170 171 188 239 242 300 299 287 15 341 360 43 1 32 69 9 116 234 107 113 169 256 295 6 10 8 358 37 37 83 113 132 146 152 154 160 164 162
14 38 317 353 13 8 65 188 169 38 331 323 13 296 349 314 328 19 86 98 64 53 71 299 329 44 23 40 38 21 4 4 69 332 36 357 333 2 330 352 25 130 117 87 97 78 101 73 86 158 153 180 202 197 251 113 42 68 293 27 329 31 41 90 101 83 157 181 64 247 145 150 4 353 358 358 6 4 350 352 13 29 28 55 111 128 136 136
80 54 341 349 345 26 344 359 11 13 315 236 78 355 359 340 290 17 12 79 9 0 45 41 358 32 340 52 103 57 4 339 359 69 13 354 285 292 332 57 34 6 70 90 12 84 67 45 5 78 51 142 175 103 140 113 118 71 67 337 339 15 50 79 113 173 162 85 78 336 272 97 13 349 348 355 355 2 10 4 0 8 5 3 358 33 88 112
58 302 68 294 87 344 2 7 356 338 7 13 62 357 13 30 35 34 324 27 13 30 77 354 27 30 9 123 112 75 337 16 18 26 320 5 330 338 29 15 54 324 13 42 355 107 136 112 252 84 39 47 63 103 96 74 66 87 78 32 38 334 58 97 249 49 101 141 182 148 108 88 329 347 331 332 347 345 353 7 7 5 15 19 33 33 23 17
109 237 196 327 73 343 148 244 332 1 26 7 99 26 33 31 37 19 353 318 22 9 39 89 4 4 22 30 91 104 17 80 5 328 51 324 13 331 23 342 342 7 29 52 27 87 94 180 186 124 116 75 70 101 113 102 94 49 25 21 44 78 61 80 66 24 85 92 112 115 92 79 6 331 328 329 332 354 23 32 37 32 20 24 39 34 26 18
11 27 330 352 68 48 345 307 12 35 34 4 34 2 19 14 36 7 21 37 33 346 10 81 45 32 36 47 53 79 358 101 111 50 314 59 327 34 17 147 295 324 23 51 68 338 103 233 146 102 80 49 21 80 84 97 115 88 37 36 41 80 68 34 68 55 85 70 71 89 81 59 358 3 354 338 342 41 47 40 37 36 31 39 47 40 36 33
268 186 284 24 29 347 344 15 13 61 46 357 19 352 14 5 5 1 59 18 67 66 7 100 227 52 33 51 62 92 204 207 220 223 236 184 109 243 79 273 64 318 344 1 23 329 68 149 56 73 92 94 4 83 107 104 87 83 46 15 9 39 65 352 47 316 113 142 123 85 66 31 303 353 333 20 44 46 46 34 34 29 30 38 45 39 40 37
330 302 51 109 69 345 20 334 23 64 45 344 350 355 4 346 353 23 74 37 33 26 9 159 298 74 17 34 29 350 308 233 245 244 229 230 235 265 247 244 336 357 312 39 280 67 97 125 106 90 99 244 262 137 150 112 73 33 339 324 81 74 114 116 61 41 42 124 77 110 182 234 287 323 49 33 46 52 44 31 27 28 31 40 40 35 33 34